Date,Time,Wetness (Wet Dry or Ice),Wind Speed (m/s),Temperature (C),Humidity (%),Pressure (mb),Radiation (W/m^2)
2020-10-12,19:15:00,DRY,3.50,15.90,30.0,777.00,0.8
2020-10-12,19:20:00,DRY,4.23,15.87,30.3,777.33,0.8
2020-10-12,19:25:00,DRY,3.60,15.85,30.0,778.00,1.9
2020-10-12,19:30:00,DRY,3.07,16.00,29.7,778.00,1.4
2020-10-12,19:35:00,DRY,2.05,15.80,30.0,778.00,0.9
2020-10-12,19:40:00,DRY,0.67,15.77,30.0,778.00,1.6
2020-10-12,19:45:00,DRY,1.60,15.95,29.0,778.00,1.8
2020-10-12,19:50:00,DRY,0.83,15.87,29.0,778.00,1.0
2020-10-12,19:55:00,DRY,0.70,15.75,30.0,778.00,1.0
2020-10-12,20:00:00,DRY,0.53,15.77,30.0,778.00,1.3
2020-10-12,20:05:00,DRY,1.15,15.85,29.5,778.00,0.7
2020-10-12,20:10:00,DRY,2.30,15.93,29.7,778.00,1.0
2020-10-12,20:15:00,DRY,0.80,15.90,29.5,778.00,1.1
2020-10-12,20:20:00,DRY,0.87,15.87,30.0,778.00,0.7
2020-10-12,20:25:00,DRY,0.80,15.95,29.5,778.00,0.4
2020-10-12,20:30:00,DRY,2.20,15.83,30.0,778.00,1.1
2020-10-12,20:35:00,DRY,1.50,15.60,30.0,778.00,1.2
2020-10-12,20:40:00,DRY,1.27,15.57,30.3,778.00,1.3
2020-10-12,20:45:00,DRY,2.80,15.60,30.5,778.00,0.8
2020-10-12,20:50:00,DRY,2.43,15.83,30.0,778.00,1.5
2020-10-12,20:55:00,DRY,1.40,15.70,30.0,778.00,1.3
2020-10-12,21:00:00,DRY,1.47,15.80,30.0,778.00,1.1
2020-10-12,21:05:00,DRY,2.15,15.60,30.5,778.00,1.6
2020-10-12,21:10:00,DRY,1.70,15.67,30.7,778.00,1.1
2020-10-12,21:15:00,DRY,1.20,15.75,30.0,778.00,1.1
2020-10-12,21:20:00,DRY,1.03,15.87,30.0,778.00,0.8
2020-10-12,21:25:00,DRY,1.40,15.50,31.0,778.00,0.5
2020-10-12,21:30:00,DRY,1.60,15.53,31.3,778.00,1.9
2020-10-12,21:35:00,DRY,0.90,15.90,30.0,778.00,0.8
2020-10-12,21:40:00,DRY,0.53,15.97,30.0,778.00,0.7
2020-10-12,21:45:00,DRY,0.80,15.80,31.0,778.00,1.1
2020-10-12,21:50:00,DRY,2.67,15.83,30.7,778.33,0.9
2020-10-12,21:55:00,DRY,1.25,15.75,31.0,778.00,1.4
2020-10-12,22:00:00,DRY,1.10,15.80,31.0,778.33,1.7
2020-10-12,22:05:00,DRY,0.95,15.75,31.0,778.00,1.0
2020-10-12,22:10:00,DRY,1.87,15.77,31.3,778.33,1.1
2020-10-12,22:15:00,DRY,3.20,15.65,31.0,778.00,1.4
2020-10-12,22:20:00,DRY,0.77,15.83,31.0,778.33,1.5
2020-10-12,22:25:00,DRY,0.90,15.65,31.0,778.00,1.6
2020-10-12,22:30:00,DRY,1.33,15.60,32.0,778.00,0.6
2020-10-12,22:35:00,DRY,0.95,15.55,32.0,778.50,0.9
2020-10-12,22:40:00,DRY,0.77,15.80,31.0,778.00,1.2
2020-10-12,22:45:00,DRY,1.50,15.70,31.0,778.00,1.9
2020-10-12,22:50:00,DRY,2.10,15.87,31.0,778.00,1.5
2020-10-12,22:55:00,DRY,2.10,15.95,31.0,778.00,0.6
2020-10-12,23:00:00,DRY,0.67,15.87,31.0,778.00,0.8
2020-10-12,23:05:00,DRY,1.00,16.10,31.0,778.00,1.6
2020-10-12,23:10:00,DRY,1.80,16.20,31.7,778.00,1.8
2020-10-12,23:15:00,DRY,1.15,16.30,33.0,778.00,1.8
2020-10-12,23:20:00,DRY,0.97,15.87,32.7,778.00,1.6
2020-10-12,23:25:00,DRY,1.25,15.65,33.0,778.00,1.1
2020-10-12,23:30:00,DRY,1.10,15.47,34.0,778.00,2.0
2020-10-12,23:35:00,DRY,1.55,15.70,33.5,778.00,1.4
2020-10-12,23:40:00,DRY,1.07,15.80,33.0,778.00,1.5
2020-10-12,23:45:00,DRY,1.15,15.70,33.0,778.00,1.1
2020-10-12,23:50:00,DRY,0.67,15.43,33.3,778.00,1.4
2020-10-12,23:55:00,DRY,0.45,15.60,33.0,778.00,1.1
2020-10-13,00:00:00,DRY,1.80,15.70,33.0,778.00,0.9
2020-10-13,00:05:00,DRY,1.45,15.60,33.0,778.00,1.2
2020-10-13,00:10:00,DRY,0.67,15.70,33.0,778.00,1.5
2020-10-13,00:15:00,DRY,1.35,15.85,33.0,778.00,0.8
2020-10-13,00:20:00,DRY,1.20,15.77,33.7,778.00,1.6
2020-10-13,00:25:00,DRY,1.75,15.75,33.5,778.00,1.4
2020-10-13,00:30:00,DRY,1.60,15.60,34.0,778.00,0.6
2020-10-13,00:35:00,DRY,1.55,15.40,35.0,778.00,2.0
2020-10-13,00:40:00,DRY,1.43,15.50,34.7,778.00,1.4
2020-10-13,00:45:00,DRY,2.15,15.70,34.0,778.00,1.9
2020-10-13,00:50:00,DRY,1.23,15.60,34.7,778.00,0.9
2020-10-13,00:55:00,DRY,0.95,15.75,34.0,778.00,1.3
2020-10-13,01:00:00,DRY,1.17,15.70,34.0,778.00,1.2
2020-10-13,01:05:00,DRY,0.90,15.50,35.0,778.00,1.3
2020-10-13,01:10:00,DRY,1.73,15.50,35.0,778.00,1.4
2020-10-13,01:15:00,DRY,1.30,15.65,35.0,778.00,1.6
2020-10-13,01:20:00,DRY,1.50,15.73,34.3,777.67,1.3
2020-10-13,01:25:00,DRY,2.30,16.15,34.0,777.00,1.0
2020-10-13,01:30:00,DRY,1.33,15.90,34.0,777.00,0.7
2020-10-13,01:35:00,DRY,1.35,15.75,35.0,777.00,1.4
2020-10-13,01:40:00,DRY,2.17,15.53,35.3,777.00,1.5
2020-10-13,01:45:00,DRY,2.30,15.60,34.5,777.00,2.1
2020-10-13,01:50:00,DRY,1.53,15.60,33.7,777.00,1.1
2020-10-13,01:55:00,DRY,1.65,15.50,35.0,777.00,1.2
2020-10-13,02:00:00,DRY,0.93,15.73,33.3,777.00,1.5
2020-10-13,02:05:00,DRY,1.15,15.85,33.0,777.00,1.9
2020-10-13,02:10:00,DRY,0.73,15.83,33.0,777.00,1.5
2020-10-13,02:15:00,DRY,0.90,15.85,33.5,777.00,1.2
2020-10-13,02:20:00,DRY,0.97,15.57,34.3,777.00,1.4
2020-10-13,02:25:00,DRY,1.20,15.75,34.5,777.00,1.4
2020-10-13,02:30:00,DRY,0.97,15.83,34.3,777.00,1.5
2020-10-13,02:35:00,DRY,1.55,15.90,33.0,777.00,1.2
2020-10-13,02:40:00,DRY,2.13,16.03,33.7,777.00,1.1
2020-10-13,02:45:00,DRY,1.45,15.80,34.5,777.00,1.5
2020-10-13,02:50:00,DRY,0.87,15.93,33.3,777.00,1.2
2020-10-13,02:55:00,DRY,1.00,15.85,35.5,777.00,1.5
2020-10-13,03:00:00,DRY,1.00,15.53,35.7,777.00,0.8
2020-10-13,03:05:00,DRY,2.35,15.35,36.0,777.00,1.6
2020-10-13,03:10:00,DRY,2.10,15.50,35.7,777.00,1.0
2020-10-13,03:15:00,DRY,1.25,15.15,37.0,777.00,1.7
2020-10-13,03:20:00,DRY,0.53,15.37,36.3,777.00,1.2
2020-10-13,03:25:00,DRY,0.95,14.90,37.5,777.00,3.1
2020-10-13,03:30:00,DRY,0.50,14.57,37.7,777.00,1.4
2020-10-13,03:35:00,DRY,1.40,14.50,37.5,777.00,1.6
2020-10-13,03:40:00,DRY,0.83,14.33,37.0,777.00,2.1
2020-10-13,03:45:00,DRY,0.55,14.35,37.5,777.00,0.9
2020-10-13,03:50:00,DRY,1.07,14.70,37.0,777.00,1.4
2020-10-13,03:55:00,DRY,1.55,14.95,37.0,777.00,0.3
2020-10-13,04:00:00,DRY,1.53,14.83,37.3,777.00,1.3
2020-10-13,04:05:00,DRY,1.35,14.95,37.5,777.00,0.8
2020-10-13,04:10:00,DRY,2.10,15.10,37.3,777.00,1.4
2020-10-13,04:15:00,DRY,0.95,15.05,38.0,777.00,1.3
2020-10-13,04:20:00,DRY,1.13,14.90,38.0,777.00,1.0
2020-10-13,04:25:00,DRY,1.70,14.80,38.0,777.00,1.0
2020-10-13,04:30:00,DRY,0.50,14.83,38.0,777.00,1.3
2020-10-13,04:35:00,DRY,1.25,14.90,38.0,777.00,1.1
2020-10-13,04:40:00,DRY,1.03,15.03,38.0,777.00,0.8
2020-10-13,04:45:00,DRY,0.60,15.05,37.0,777.00,0.9
2020-10-13,04:50:00,DRY,1.30,14.93,37.0,777.00,1.4
2020-10-13,04:55:00,DRY,1.15,14.75,37.0,777.00,1.4
2020-10-13,05:00:00,DRY,0.87,14.83,36.3,777.00,1.0
2020-10-13,05:05:00,DRY,0.60,14.80,36.0,777.00,1.0
2020-10-13,05:10:00,DRY,1.07,14.90,35.3,777.00,0.8
2020-10-13,05:15:00,DRY,1.50,14.95,35.0,777.00,1.2
2020-10-13,05:20:00,DRY,1.97,15.07,35.7,777.00,1.2
2020-10-13,05:25:00,DRY,0.80,15.05,36.0,777.00,0.9
2020-10-13,05:30:00,DRY,1.10,15.07,35.3,777.00,2.8
2020-10-13,05:35:00,DRY,0.75,14.80,35.5,777.00,1.7
2020-10-13,05:40:00,DRY,1.87,14.60,35.7,777.00,1.5
2020-10-13,05:45:00,DRY,2.25,14.85,35.0,777.00,1.9
2020-10-13,05:50:00,DRY,0.97,14.73,35.0,777.00,0.9
2020-10-13,05:55:00,DRY,1.60,14.90,35.0,777.00,0.8
2020-10-13,06:00:00,DRY,1.37,15.07,34.0,777.00,1.6
2020-10-13,06:05:00,DRY,1.80,14.65,35.0,777.00,0.5
2020-10-13,06:10:00,DRY,0.97,14.33,36.0,777.00,1.7
2020-10-13,06:15:00,DRY,1.55,14.35,36.0,777.00,0.7
2020-10-13,06:20:00,DRY,2.57,14.53,35.7,777.00,1.0
2020-10-13,06:25:00,DRY,2.65,14.70,35.0,777.00,0.6
2020-10-13,06:30:00,DRY,1.00,14.80,35.0,777.00,1.1
2020-10-13,06:35:00,DRY,2.35,14.80,35.0,777.00,0.5
2020-10-13,06:40:00,DRY,1.60,14.63,35.3,777.00,0.9
2020-10-13,06:45:00,DRY,2.60,14.55,36.0,777.00,1.1
2020-10-13,06:50:00,DRY,2.03,14.77,35.0,777.00,1.0
2020-10-13,06:55:00,DRY,2.10,14.85,35.0,777.00,0.8
2020-10-13,07:00:00,DRY,2.40,14.93,35.3,777.00,2.7
2020-10-13,07:05:00,DRY,3.45,14.85,35.0,777.00,5.3
2020-10-13,07:10:00,DRY,2.97,15.10,34.7,777.00,5.1
2020-10-13,07:15:00,DRY,1.85,15.30,34.0,777.00,8.2
2020-10-13,07:20:00,DRY,1.67,15.20,34.0,777.00,12.9
2020-10-13,07:25:00,DRY,2.90,15.15,34.0,777.50,20.1
2020-10-13,07:30:00,DRY,2.53,15.13,33.7,777.00,34.7
2020-10-13,07:35:00,DRY,2.05,15.25,33.5,778.00,60.8
2020-10-13,07:40:00,DRY,1.33,15.23,34.0,777.00,77.3
2020-10-13,07:45:00,DRY,1.90,15.20,34.0,777.00,87.7
2020-10-13,07:50:00,DRY,3.00,15.20,34.3,777.67,110.1
2020-10-13,07:55:00,DRY,2.10,15.25,34.0,778.00,149.1
2020-10-13,08:00:00,DRY,1.70,15.33,34.3,777.67,182.8
2020-10-13,08:05:00,DRY,2.15,15.45,34.0,778.00,186.7
2020-10-13,08:10:00,DRY,1.50,15.50,35.3,778.00,199.7
2020-10-13,08:15:00,DRY,1.65,15.50,35.0,778.00,210.6
2020-10-13,08:20:00,DRY,1.70,15.43,35.3,778.00,96.9
2020-10-13,08:25:00,DRY,2.30,15.15,36.0,778.00,74.1
2020-10-13,08:30:00,DRY,2.27,15.43,35.3,778.00,72.9
2020-10-13,08:35:00,DRY,1.20,15.40,35.5,778.00,92.1
2020-10-13,08:40:00,DRY,1.97,15.57,33.7,778.00,127.8
2020-10-13,08:45:00,DRY,1.50,15.75,34.0,778.00,201.1
2020-10-13,08:50:00,DRY,2.07,15.80,34.0,778.00,308.8
2020-10-13,08:55:00,DRY,1.15,16.05,33.0,778.00,393.4
2020-10-13,09:00:00,DRY,2.90,16.37,33.0,778.00,518.7
2020-10-13,09:05:00,DRY,1.20,16.55,33.0,778.00,562.8
2020-10-13,09:10:00,DRY,1.87,16.53,33.7,778.00,566.6
2020-10-13,09:15:00,DRY,1.60,16.65,33.5,778.00,548.4
2020-10-13,09:20:00,DRY,1.43,16.60,34.0,778.00,555.1
2020-10-13,09:25:00,DRY,2.20,16.75,33.5,778.00,566.9
2020-10-13,09:30:00,DRY,1.13,16.67,33.3,778.00,414.7
2020-10-13,09:35:00,DRY,2.05,16.95,32.5,778.00,378.9
2020-10-13,09:40:00,DRY,2.33,16.40,32.0,778.00,531.9
2020-10-13,09:45:00,DRY,2.25,16.65,32.5,778.00,670.8
2020-10-13,09:50:00,DRY,3.43,16.37,31.7,778.00,355.0
2020-10-13,09:55:00,DRY,3.45,16.20,33.0,778.00,177.3
2020-10-13,10:00:00,DRY,2.53,16.17,32.7,778.00,569.6
2020-10-13,10:05:00,WET,2.10,16.50,33.0,778.00,866.1
2020-10-13,10:10:00,DRY,2.10,16.90,33.0,778.00,901.3
2020-10-13,10:15:00,DRY,1.95,17.25,33.0,778.00,846.7
2020-10-13,10:20:00,DRY,2.20,17.30,31.7,778.00,826.8
2020-10-13,10:25:00,DRY,3.25,17.30,32.5,778.00,833.4
2020-10-13,10:30:00,DRY,3.23,17.30,32.0,778.00,825.9
2020-10-13,10:35:00,DRY,2.70,16.85,32.0,778.00,353.4
2020-10-13,10:40:00,DRY,2.17,16.93,32.3,778.00,737.9
2020-10-13,10:45:00,DRY,2.40,16.95,33.0,778.00,300.1
2020-10-13,10:50:00,DRY,1.90,16.77,32.3,778.00,196.3
2020-10-13,10:55:00,DRY,1.40,16.25,33.5,778.00,248.8
2020-10-13,11:00:00,DRY,2.70,16.10,33.7,778.00,702.2
2020-10-13,11:05:00,DRY,2.25,16.35,33.5,778.00,860.2
2020-10-13,11:10:00,DRY,2.00,16.27,33.7,778.00,838.0
2020-10-13,11:15:00,DRY,4.60,16.60,34.0,778.00,956.7
2020-10-13,11:20:00,DRY,6.10,16.53,34.7,778.00,731.8
2020-10-13,11:25:00,DRY,4.70,16.45,34.0,778.00,638.2
2020-10-13,11:30:00,DRY,4.43,16.43,34.0,778.00,845.4
2020-10-13,11:35:00,DRY,5.05,16.75,33.5,778.00,721.2
2020-10-13,11:40:00,DRY,3.53,16.67,33.7,778.00,894.3
2020-10-13,11:45:00,DRY,3.45,16.35,33.5,778.00,509.4
2020-10-13,11:50:00,DRY,3.50,16.77,33.0,778.00,796.2
2020-10-13,11:55:00,DRY,5.75,17.00,32.0,778.00,1026.8
2020-10-13,12:00:00,DRY,4.73,17.07,32.0,778.00,1029.1
2020-10-13,12:05:00,DRY,3.20,17.10,32.0,778.00,999.0
2020-10-13,12:10:00,DRY,4.90,17.43,32.3,778.00,1026.3
2020-10-13,12:15:00,DRY,4.05,17.35,30.5,778.00,1023.4
2020-10-13,12:20:00,DRY,2.85,17.20,31.0,778.00,681.8
2020-10-13,12:25:00,DRY,2.30,17.30,31.5,778.00,1015.0
2020-10-13,12:30:00,DRY,2.70,17.37,31.3,778.00,1029.0
2020-10-13,12:35:00,DRY,2.30,17.30,32.0,778.00,1038.9
2020-10-13,12:40:00,DRY,3.40,17.67,32.0,778.00,1048.4
2020-10-13,12:45:00,DRY,2.20,18.00,33.0,778.00,1111.8
2020-10-13,12:50:00,DRY,3.70,18.27,31.3,778.00,1071.7
2020-10-13,12:55:00,DRY,3.65,18.20,32.0,778.00,504.8
2020-10-13,13:00:00,DRY,1.20,17.67,32.7,778.00,448.0
2020-10-13,13:05:00,DRY,3.50,17.05,31.5,778.00,406.2
2020-10-13,13:10:00,DRY,3.27,17.17,32.7,778.00,931.8
2020-10-13,13:15:00,DRY,1.95,17.90,31.5,778.00,1139.2
2020-10-13,13:20:00,DRY,2.53,17.67,31.7,777.67,459.8
2020-10-13,13:25:00,DRY,2.95,16.65,34.5,777.50,830.5
2020-10-13,13:30:00,DRY,3.30,16.90,34.0,777.00,478.5
2020-10-13,13:35:00,DRY,4.90,16.50,34.0,777.00,419.2
2020-10-13,13:40:00,DRY,2.07,16.37,35.3,777.33,279.1
2020-10-13,13:45:00,DRY,2.20,16.35,35.5,777.00,261.6
2020-10-13,13:50:00,DRY,1.63,16.40,35.0,777.00,246.7
2020-10-13,13:55:00,DRY,4.20,16.40,35.0,777.00,280.8
2020-10-13,14:00:00,DRY,2.43,16.27,35.3,777.00,426.7
2020-10-13,14:05:00,DRY,3.90,16.25,35.5,777.00,581.5
2020-10-13,14:10:00,DRY,4.20,16.63,35.7,777.00,439.9
2020-10-13,14:15:00,DRY,3.30,16.30,35.5,777.00,368.6
2020-10-13,14:20:00,DRY,2.20,16.30,35.7,777.00,504.6
2020-10-13,14:25:00,DRY,2.30,16.85,35.5,777.00,398.9
2020-10-13,14:30:00,DRY,2.57,16.73,35.7,777.00,413.4
2020-10-13,14:35:00,DRY,1.55,16.85,36.0,777.00,305.9
2020-10-13,14:40:00,DRY,1.03,17.03,35.0,777.00,444.2
2020-10-13,14:45:00,DRY,1.40,17.15,35.0,777.00,662.2
2020-10-13,14:50:00,DRY,3.60,17.23,35.0,777.00,962.1
2020-10-13,14:55:00,DRY,1.80,17.75,35.0,777.00,884.8
2020-10-13,15:00:00,DRY,1.40,17.90,33.3,777.00,841.2
2020-10-13,15:05:00,DRY,2.70,17.85,34.5,777.00,821.0
2020-10-13,15:10:00,DRY,1.43,17.50,34.3,777.00,822.9
2020-10-13,15:15:00,DRY,2.35,17.40,35.0,777.00,838.8
2020-10-13,15:20:00,DRY,2.55,17.10,34.5,777.00,535.4
2020-10-13,15:25:00,DRY,2.60,16.75,35.0,777.00,336.7
2020-10-13,15:30:00,DRY,3.00,16.63,35.7,777.00,484.6
2020-10-13,15:35:00,DRY,1.95,17.15,34.5,777.00,503.4
2020-10-13,15:40:00,DRY,1.63,16.50,35.3,777.00,139.0
2020-10-13,15:45:00,DRY,0.50,16.35,36.5,777.00,150.7
2020-10-13,15:50:00,DRY,1.73,16.43,37.0,777.00,285.2
2020-10-13,15:55:00,DRY,2.40,16.40,37.0,777.00,700.0
2020-10-13,16:00:00,DRY,2.53,16.60,35.3,777.00,607.4
2020-10-13,16:05:00,DRY,1.40,16.70,35.5,777.00,240.5
2020-10-13,16:10:00,DRY,2.13,16.27,36.3,777.00,409.8
2020-10-13,16:15:00,DRY,2.60,16.15,37.0,777.00,283.4
2020-10-13,16:20:00,DRY,2.00,16.30,37.0,777.00,600.2
2020-10-13,16:25:00,DRY,2.30,16.65,36.0,777.00,560.4
2020-10-13,16:30:00,DRY,2.33,16.70,35.7,777.00,536.9
2020-10-13,16:35:00,DRY,1.20,16.60,35.5,777.00,515.8
2020-10-13,16:40:00,DRY,2.33,16.63,35.7,777.00,485.0
2020-10-13,16:45:00,DRY,1.75,16.55,35.5,777.00,455.9
2020-10-13,16:50:00,DRY,0.60,16.30,36.0,777.00,431.2
2020-10-13,16:55:00,DRY,1.70,16.60,35.5,777.00,406.5
2020-10-13,17:00:00,DRY,2.17,16.93,35.3,777.00,381.0
2020-10-13,17:05:00,DRY,3.00,16.45,35.5,777.00,150.8
2020-10-13,17:10:00,DRY,2.07,15.93,37.7,777.00,224.6
2020-10-13,17:15:00,DRY,0.55,16.10,38.0,777.00,319.5
2020-10-13,17:20:00,DRY,1.23,16.23,37.7,777.00,244.4
2020-10-13,17:25:00,DRY,1.65,16.05,39.0,777.00,112.9
2020-10-13,17:30:00,DRY,1.03,15.63,39.3,777.00,108.2
2020-10-13,17:35:00,DRY,0.70,15.35,40.5,777.00,82.8
2020-10-13,17:40:00,DRY,0.60,15.27,40.7,777.00,75.1
2020-10-13,17:45:00,DRY,0.65,15.25,40.5,777.00,66.0
2020-10-13,17:50:00,DRY,0.93,15.20,41.0,777.00,60.6
2020-10-13,17:55:00,DRY,1.65,15.20,41.0,777.00,58.9
2020-10-13,18:00:00,DRY,0.57,15.07,41.0,777.33,58.9
2020-10-13,18:05:00,DRY,1.65,14.95,41.0,777.00,56.5
2020-10-13,18:10:00,DRY,1.10,14.83,41.3,777.67,50.9
2020-10-13,18:15:00,DRY,0.40,14.80,42.0,777.00,35.2
2020-10-13,18:20:00,DRY,0.67,14.67,41.7,777.67,27.7
2020-10-13,18:25:00,DRY,0.80,14.60,42.0,777.50,20.9
2020-10-13,18:30:00,DRY,1.03,14.60,41.3,777.67,15.4
2020-10-13,18:35:00,DRY,1.45,14.40,39.0,778.00,11.8
2020-10-13,18:40:00,DRY,1.50,14.20,40.0,778.00,7.0
2020-10-13,18:45:00,DRY,1.45,14.05,39.5,778.00,4.5
2020-10-13,18:50:00,DRY,1.90,14.00,39.0,778.00,3.4
2020-10-13,18:55:00,DRY,1.05,13.90,40.0,778.00,3.0
2020-10-13,19:00:00,DRY,1.40,13.97,39.0,778.00,1.6
2020-10-13,19:05:00,DRY,1.45,13.95,39.5,778.00,2.0
2020-10-13,19:10:00,DRY,1.83,14.03,41.0,778.00,2.0
2020-10-13,19:15:00,DRY,1.65,14.10,41.0,778.00,1.2
2020-10-13,19:20:00,DRY,1.73,14.13,40.7,778.00,1.3
2020-10-13,19:25:00,DRY,1.40,13.85,41.0,778.00,1.8
2020-10-13,19:30:00,DRY,1.97,13.87,40.3,778.00,1.5
2020-10-13,19:35:00,DRY,1.45,13.75,41.0,778.00,1.6
2020-10-13,19:40:00,DRY,1.50,13.57,41.0,778.00,1.7
2020-10-13,19:45:00,DRY,1.85,13.60,41.0,778.00,1.3
2020-10-13,19:50:00,DRY,0.97,13.70,41.0,778.00,1.0
2020-10-13,19:55:00,DRY,1.30,13.80,41.0,778.00,1.5
2020-10-13,20:00:00,DRY,0.90,13.97,43.0,778.00,0.7
2020-10-13,20:05:00,DRY,0.75,13.95,43.5,778.00,1.6
2020-10-13,20:10:00,DRY,1.27,13.87,42.0,778.00,1.1
2020-10-13,20:15:00,DRY,0.95,14.00,43.5,778.00,1.9
2020-10-13,20:20:00,DRY,0.67,14.03,43.7,778.00,2.1
2020-10-13,20:25:00,DRY,0.60,13.85,43.5,778.00,1.1
2020-10-13,20:30:00,DRY,1.30,13.93,44.0,778.00,1.3
2020-10-13,20:35:00,DRY,1.00,14.05,43.0,778.00,0.8
2020-10-13,20:40:00,DRY,1.07,13.90,43.7,778.00,1.6
2020-10-13,20:45:00,DRY,0.50,13.70,44.0,778.00,1.3
2020-10-13,20:50:00,DRY,0.77,13.70,43.7,778.00,0.8
2020-10-13,20:55:00,DRY,1.05,13.65,44.0,778.00,1.9
2020-10-13,21:00:00,DRY,1.13,13.73,44.0,778.00,1.5
2020-10-13,21:05:00,DRY,1.10,13.75,44.0,778.00,1.3
2020-10-13,21:10:00,DRY,1.07,13.73,44.0,778.00,1.0
2020-10-13,21:15:00,DRY,0.40,13.65,44.5,778.00,1.0
2020-10-13,21:20:00,DRY,0.83,13.63,45.0,778.00,0.9
2020-10-13,21:25:00,DRY,0.95,13.70,44.5,778.00,1.5
2020-10-13,21:30:00,DRY,1.10,13.87,44.0,778.00,1.7
2020-10-13,21:35:00,DRY,1.60,14.15,43.0,778.00,1.9
2020-10-13,21:40:00,DRY,2.10,14.20,43.0,778.00,1.2
2020-10-13,21:45:00,DRY,1.70,14.25,42.5,778.00,0.7
2020-10-13,21:50:00,DRY,1.57,14.23,42.7,778.00,0.5
2020-10-13,21:55:00,DRY,2.55,14.10,43.5,778.00,2.0
2020-10-13,22:00:00,DRY,3.03,14.30,44.0,778.00,0.5
2020-10-13,22:05:00,DRY,0.50,14.25,44.5,778.00,0.9
2020-10-13,22:10:00,DRY,1.90,14.20,45.0,778.00,1.6
2020-10-13,22:15:00,DRY,4.55,14.45,45.0,778.00,1.2
2020-10-13,22:20:00,DRY,1.53,14.47,44.0,778.00,0.8
2020-10-13,22:25:00,DRY,2.90,14.50,44.0,778.50,1.3
2020-10-13,22:30:00,DRY,3.17,14.43,44.7,778.00,1.8
2020-10-13,22:35:00,DRY,2.85,14.45,44.0,778.50,1.3
2020-10-13,22:40:00,DRY,1.43,14.50,44.0,778.00,1.5
2020-10-13,22:45:00,DRY,1.45,14.45,44.0,778.00,1.2
2020-10-13,22:50:00,DRY,1.37,14.37,45.0,778.00,0.9
2020-10-13,22:55:00,DRY,1.90,14.25,45.0,778.00,0.6
2020-10-13,23:00:00,DRY,2.33,14.33,44.3,778.00,0.3
2020-10-13,23:05:00,DRY,1.15,14.30,44.5,778.00,1.1
2020-10-13,23:10:00,DRY,1.93,14.33,44.3,778.00,1.9
2020-10-13,23:15:00,DRY,1.75,14.10,45.0,778.00,1.1
2020-10-13,23:20:00,DRY,1.33,14.23,44.7,778.00,1.5
2020-10-13,23:25:00,DRY,1.45,14.30,44.0,778.00,1.1
2020-10-13,23:30:00,DRY,1.47,14.20,44.3,778.00,1.2
2020-10-13,23:35:00,DRY,2.00,14.05,43.5,778.00,0.9
2020-10-13,23:40:00,DRY,2.97,14.23,42.3,778.00,1.1
2020-10-13,23:45:00,DRY,2.65,14.45,41.0,778.00,1.2
2020-10-13,23:50:00,DRY,1.93,14.53,40.0,778.00,1.1
2020-10-13,23:55:00,DRY,1.35,14.30,41.0,778.00,0.9
2020-10-14,00:00:00,DRY,1.77,14.20,41.3,778.00,0.7
2020-10-14,00:05:00,DRY,1.10,14.10,41.5,778.00,1.7
2020-10-14,00:10:00,DRY,1.20,14.03,41.0,778.00,0.8
2020-10-14,00:15:00,DRY,1.05,14.00,41.0,778.00,0.4
2020-10-14,00:20:00,DRY,0.77,14.10,40.3,778.00,1.5
2020-10-14,00:25:00,DRY,1.25,14.05,41.0,778.00,0.9
2020-10-14,00:30:00,DRY,0.77,13.90,41.7,778.00,0.7
2020-10-14,00:35:00,DRY,1.00,13.70,43.0,778.00,0.8
2020-10-14,00:40:00,DRY,1.00,13.87,41.7,778.00,1.9
2020-10-14,00:45:00,DRY,1.60,13.85,41.5,778.00,0.7
2020-10-14,00:50:00,DRY,1.27,14.10,41.0,778.00,0.8
2020-10-14,00:55:00,DRY,0.95,14.10,40.0,778.00,1.5
2020-10-14,01:00:00,DRY,1.23,14.00,41.0,778.00,1.2
2020-10-14,01:05:00,DRY,2.40,14.05,40.5,778.00,1.8
2020-10-14,01:10:00,DRY,1.57,13.90,41.0,778.00,1.1
2020-10-14,01:15:00,DRY,0.90,13.50,42.0,778.00,2.2
2020-10-14,01:20:00,DRY,2.33,13.60,41.7,778.00,1.5
2020-10-14,01:25:00,DRY,0.85,13.70,41.0,777.50,1.5
2020-10-14,01:30:00,DRY,0.63,14.00,40.0,778.00,1.4
2020-10-14,01:35:00,DRY,1.65,13.90,40.5,777.50,1.6
2020-10-14,01:40:00,DRY,1.20,13.83,40.7,777.33,0.7
2020-10-14,01:45:00,DRY,0.65,13.75,41.0,777.50,1.4
2020-10-14,01:50:00,DRY,1.33,13.60,41.7,777.33,0.9
2020-10-14,01:55:00,DRY,1.50,13.65,41.0,777.50,0.9
2020-10-14,02:00:00,DRY,1.40,13.80,41.0,777.00,1.2
2020-10-14,02:05:00,DRY,0.50,13.65,41.0,777.00,1.5
2020-10-14,02:10:00,DRY,1.03,13.60,41.0,777.00,1.8
2020-10-14,02:15:00,DRY,0.70,13.70,41.0,777.00,1.5
2020-10-14,02:20:00,DRY,1.00,13.60,41.0,777.00,0.9
2020-10-14,02:25:00,DRY,1.50,13.60,41.0,777.00,1.9
2020-10-14,02:30:00,DRY,0.83,13.60,41.0,777.00,1.3
2020-10-14,02:35:00,DRY,0.95,13.50,41.0,777.00,1.3
2020-10-14,02:40:00,DRY,1.20,13.60,41.0,777.00,1.0
2020-10-14,02:45:00,DRY,0.90,13.50,41.0,777.00,0.8
2020-10-14,02:50:00,DRY,1.10,13.70,40.3,777.00,1.3
2020-10-14,02:55:00,DRY,1.30,13.85,40.0,777.00,2.6
2020-10-14,03:00:00,DRY,0.87,13.60,40.3,777.00,1.3
2020-10-14,03:05:00,DRY,1.20,13.50,41.0,777.00,1.0
2020-10-14,03:10:00,DRY,1.03,13.53,41.0,777.00,1.2
2020-10-14,03:15:00,DRY,1.25,13.55,41.0,777.00,1.6
2020-10-14,03:20:00,DRY,1.33,13.43,41.0,777.00,1.0
2020-10-14,03:25:00,DRY,1.15,13.35,41.5,777.00,1.5
2020-10-14,03:30:00,DRY,1.20,13.63,41.0,777.00,0.7
2020-10-14,03:35:00,DRY,1.25,13.40,41.5,777.00,1.4
2020-10-14,03:40:00,DRY,0.70,13.13,42.3,777.00,1.4
2020-10-14,03:45:00,DRY,1.10,13.20,42.0,777.00,2.1
2020-10-14,03:50:00,DRY,1.80,13.10,42.0,777.00,1.0
2020-10-14,03:55:00,DRY,2.40,13.10,42.0,777.00,0.9
2020-10-14,04:00:00,DRY,1.67,13.17,42.0,777.00,1.6
2020-10-14,04:05:00,DRY,2.00,13.20,42.0,777.00,1.1
2020-10-14,04:10:00,DRY,2.13,13.20,42.0,777.00,0.7
2020-10-14,04:15:00,DRY,0.90,13.15,42.0,777.00,1.1
2020-10-14,04:20:00,DRY,1.77,13.03,43.0,777.00,1.6
2020-10-14,04:25:00,DRY,2.20,13.15,42.5,777.00,1.0
2020-10-14,04:30:00,DRY,1.63,13.27,41.0,777.00,1.2
2020-10-14,04:35:00,DRY,1.90,13.20,41.0,777.00,1.5
2020-10-14,04:40:00,DRY,2.07,13.27,41.3,777.00,2.1
2020-10-14,04:45:00,DRY,2.85,13.25,40.5,777.00,1.4
2020-10-14,04:50:00,DRY,2.03,13.40,40.0,777.00,1.3
2020-10-14,04:55:00,DRY,2.05,13.65,40.0,777.00,1.7
2020-10-14,05:00:00,DRY,2.50,13.57,39.7,777.00,1.4
2020-10-14,05:05:00,DRY,3.10,13.45,40.0,777.00,1.9
2020-10-14,05:10:00,DRY,2.33,13.60,40.0,777.00,1.1
2020-10-14,05:15:00,DRY,3.10,13.75,40.0,777.00,1.1
2020-10-14,05:20:00,DRY,3.17,13.80,40.0,777.00,1.9
2020-10-14,05:25:00,DRY,2.60,13.80,40.0,777.00,0.7
2020-10-14,05:30:00,DRY,2.70,13.77,40.0,777.00,1.7
2020-10-14,05:35:00,DRY,1.85,13.75,40.0,777.00,1.6
2020-10-14,05:40:00,DRY,1.53,13.60,40.7,777.00,0.8
2020-10-14,05:45:00,DRY,3.05,13.65,41.0,777.00,1.3
2020-10-14,05:50:00,DRY,2.53,13.63,41.0,777.00,2.0
2020-10-14,05:55:00,DRY,1.70,13.45,41.0,777.00,2.3
2020-10-14,06:00:00,DRY,2.10,13.40,41.0,777.00,1.1
2020-10-14,06:05:00,DRY,1.25,13.30,41.0,777.00,1.2
2020-10-14,06:10:00,DRY,1.47,13.20,41.0,777.00,1.5
2020-10-14,06:15:00,DRY,0.95,13.05,41.0,777.00,1.4
2020-10-14,06:20:00,DRY,2.03,13.10,41.0,777.00,1.0
2020-10-14,06:25:00,DRY,1.30,13.10,41.0,777.00,1.1
2020-10-14,06:30:00,DRY,1.40,13.03,41.0,777.00,1.0
2020-10-14,06:35:00,DRY,1.30,12.90,41.0,777.00,1.4
2020-10-14,06:40:00,DRY,2.00,12.93,41.0,777.00,1.1
2020-10-14,06:45:00,DRY,1.45,13.00,41.0,777.00,1.1
2020-10-14,06:50:00,DRY,1.43,13.00,41.3,777.00,0.5
2020-10-14,06:55:00,DRY,1.20,13.05,41.0,777.00,2.1
2020-10-14,07:00:00,DRY,0.77,12.93,41.3,777.00,2.2
2020-10-14,07:05:00,DRY,0.80,12.80,42.5,777.00,3.5
2020-10-14,07:10:00,DRY,1.20,12.83,43.0,777.00,5.7
2020-10-14,07:15:00,DRY,1.50,13.10,42.0,777.00,7.1
2020-10-14,07:20:00,DRY,1.33,13.07,42.0,777.00,11.4
2020-10-14,07:25:00,DRY,1.05,13.05,42.0,777.00,16.8
2020-10-14,07:30:00,DRY,1.23,13.00,43.0,777.00,22.4
2020-10-14,07:35:00,DRY,1.65,12.85,43.0,777.00,29.6
2020-10-14,07:40:00,DRY,1.73,12.97,43.0,777.00,42.9
2020-10-14,07:45:00,DRY,2.20,12.90,43.5,777.00,51.3
2020-10-14,07:50:00,DRY,0.93,12.77,44.0,777.33,64.7
2020-10-14,07:55:00,DRY,1.95,12.95,43.5,777.50,74.6
2020-10-14,08:00:00,DRY,1.63,12.87,43.7,778.00,79.8
2020-10-14,08:05:00,DRY,1.75,12.85,44.0,778.00,90.7
2020-10-14,08:10:00,DRY,1.80,13.00,43.0,778.00,143.1
2020-10-14,08:15:00,DRY,1.85,13.15,42.5,778.00,212.9
2020-10-14,08:20:00,DRY,1.33,13.33,41.7,778.00,237.6
2020-10-14,08:25:00,DRY,0.75,13.40,42.0,778.00,260.8
2020-10-14,08:30:00,DRY,1.73,13.50,41.3,778.00,285.5
2020-10-14,08:35:00,DRY,2.25,13.60,41.5,778.00,310.1
2020-10-14,08:40:00,DRY,1.87,13.57,41.7,778.00,331.6
2020-10-14,08:45:00,DRY,1.95,13.65,41.0,778.00,353.5
2020-10-14,08:50:00,DRY,1.43,13.53,41.3,778.00,378.3
2020-10-14,08:55:00,DRY,2.05,13.70,41.5,778.00,407.6
2020-10-14,09:00:00,DRY,1.60,13.93,41.3,778.00,346.7
2020-10-14,09:05:00,DRY,0.75,13.95,40.0,778.00,453.3
2020-10-14,09:10:00,DRY,1.00,14.17,41.0,778.00,478.5
2020-10-14,09:15:00,DRY,1.05,14.50,41.5,778.00,413.4
2020-10-14,09:20:00,DRY,1.17,14.43,39.3,778.00,319.2
2020-10-14,09:25:00,DRY,1.50,14.40,39.0,778.00,246.8
2020-10-14,09:30:00,DRY,1.97,14.27,39.3,778.00,266.7
2020-10-14,09:35:00,DRY,1.55,14.50,38.0,778.00,626.0
2020-10-14,09:40:00,DRY,1.67,14.80,37.3,778.00,486.2